Location: Newark
(34.6283°N, 36.0776°E)
Time: 02:48:24
(UTC+00:00)

Tiros 1 despin weight - Pass Details

Date: 20 September 2019
Orbit: 593 x 643 km, 48.2° (Epoch: 20 October)

Event Time Altitude Azimuth Distance (km) Brightness Sun altitude
Rises 08:58:24 0° 224° (SW) 2,895 ? 55.7°
Reaches altitude 10° 09:00:44 10° 222° (SW) 1,983 ? 55.9°
Maximum altitude 09:05:15 67° 140° (SE) 666 ? 56.0°
Drops below altitude 10° 09:09:43 10° 58° (ENE) 1,960 ? 56.2°
Sets 09:12:01 0° 55° (NE) 2,858 ? 56.3°
